Regional Weather Roundup
Issued by NWS

Home | Current Version | Previous Version | Graphics & Text | Print | Product List | Glossary On
Versions: 1 2 3 4 5 6 7 8 9 10 11 12 13 14 15 16 17 18 19 20 21 22 23 24 25 26 27 28 29 30 31 32 33 34 35 36 37 38 39 40 41 42 43 44 45 46 47 48 49 50
664
ASUS43 KBIS 211210
RWRND
NORTH DAKOTA REGIONAL WEATHER ROUNDUP
NATIONAL WEATHER SERVICE EASTERN NORTH DAKOTA/GRAND FORKS ND
700 AM CDT MON MAY 21 2018

  NOTE: "FAIR" INDICATES FEW OR NO CLOUDS BELOW 12,000 FEET WITH NO
  SIGNIFICANT WEATHER AND/OR OBSTRUCTIONS TO VISIBILITY.

NDZ001>003-009>011-017-211300-
...NORTHWEST NORTH DAKOTA...

CITY           SKY/WX    TMP DP  RH WIND       PRES   REMARKS
WILLISTON      FAIR      51  37  58 S5        29.97F
6HR MIN TEMP:  50; 6HR MAX TEMP:  57;

MINOT          FAIR      42  37  82 SE5       30.02S
MINOT AFB      FAIR      38  36  90 SE6       30.01F WCI  34
6HR MIN TEMP:  35; 6HR MAX TEMP:  50;

$$

NDZ018>021-031>035-040>046-211300-
...SOUTHWEST NORTH DAKOTA...

CITY           SKY/WX    TMP DP  RH WIND       PRES   REMARKS
BISMARCK       FAIR      42  39  89 E3        30.05S
DICKINSON      FAIR      38  33  82 S9        29.98F WCI  31
GARRISON         N/A     41  34  76 CALM      30.02F
HETTINGER      FAIR      34  31  88 CALM      30.02S
$$

NDZ004>008-012>016-024-026-027-054-211300-
...NORTHEAST NORTH DAKOTA...

CITY           SKY/WX    TMP DP  RH WIND       PRES   REMARKS
GRAND FORKS    FAIR      47  40  76 CALM      30.08S
GRAND FORKS AF FAIR      44  40  86 CALM      30.08S
DEVILS LAKE    FAIR      45  40  82 E3        30.08F
$$

NDZ022-023-025-028>030-036>039-047>053-211300-
...SOUTHEAST NORTH DAKOTA...

CITY           SKY/WX    TMP DP  RH WIND       PRES   REMARKS
JAMESTOWN      FAIR      46  41  82 E3        30.06S
FARGO          FAIR      47  39  74 E3        30.08S
WAHPETON       PTSUNNY   54  34  47 E6        30.08S
$$




USA.gov is the U.S. government's official web portal to all federal, state and local government web resources and services.